ATLAS 5 CENTAUR DEB, 46668

Orbit data source: Space-Track

ATLAS 5 CENTAUR DEB, 46668 is space debris in HEO originally from a launch on Wed, 17 Oct 2018 UTC launched from the Air Force Eastern Test Range (AFETR). Debris objects in space refer to the collection of defunct objects orbiting the Earth. Examples of debris include non-operational satellites, rocket bodies, and fragments generated from explosions, collisions, or faulty payload assembly.

Loading next visibility...
Identifier
46668, 2018-079CW
Orbit
HEO
Country
Flag of USUS
Related business
Flag of USUnited Launch Alliance/Lockheed Martin (US)
Manufacturer
ULA Decatur
Mission
Spacecraft
Bus & Motor
Unknown
Mass
Unknown
Launch date (UTC)
2018-10-17 (8 years ago)
Launch vehicle
Unknown
Launch site
Air Force Eastern Test Range (AFETR)
Object type
Payload
Rocket body
Debris
Shape & HBR
Unknown shape, 1.1 m
Radar Cross Section
RCS unknown

Expand to show TLE details & history
Last TLE update: 4 days ago

TLE from 4 days ago
0 ATLAS 5 CENTAUR DEB
1 46668U 18079CW  26259.62295305 -.00000187  00000-0  00000-0 0  9998
2 46668  13.3665  25.4143 4659381 337.1724   7.4533  1.83703898 39852
Epoch: 2026-09-16T14:57Z
TLE epoch observation values (Epoch: 2026-09-16T14:57:03.143Z)
Latitude
-0.00001°
Longitude
165.59257°
Altitude
9,019.221 km
Speed
6.134 km/s
True Right ascension
01h 41m 42s
True Declination
0° 00' 00"
Sunlit
Object was in daylight at epoch
Visualization orbit readout
Latitude
Unknown
Longitude
Unknown
Altitude
Unknown
Speed
Unknown
Apparent Right ascension
Unknown
Apparent Declination
Unknown
Sunlit
N/A
Visualization observer readout
Local Sidereal Time
14:01:11
Azimuth
Unknown
Elevation
Unknown
Doppler factor
Unknown
Orbital elements
Apogee altitude
34,907.994 km
Perigee altitude
8,662.982 km
Semi-major axis
28,163.625 km
Eccentricity
0.46594
Inclination
13.3665°
RAAN
25.4143°
Arg. of periapsis
337.1724°
True anomaly
22.73671°
Mean anomaly
7.4533°
Eccentric anomaly
13.83882°
Mean motion
0.45921 °/min
Orbital period
783.96 mins
BSTAR
0
Loading maneuver chart data...
Computing Atmospheric mass density...

Documentation

Showing up to 5 results
|